www.pogodaiklimat.ru

Погода и климат >> Архив погоды >> Беларусь >> Вилейка


ПОГОДА в Вилейке

  • Прогноз погоды в Вилейке
  • Монитор погоды в Вилейке

АРХИВ ПОГОДЫ в Вилейке

Время (UTC), дата Ветер
(напр.,м/с)
 
Видим.   Явления Облачность Т
(С)
Тd
(С)
f
(%)
Тe
(С)
Тes
(С)
Комфортность P
(гПа)
Po
(гПа)
Тmin
(С)
Tmax
(С)
R
(мм)
R24
(мм)
S
(см)
06 10.09 Ю 3 35 км 5/0
[Ci fib]
+16.4 +10.3 67 +16 +17 1020.0 998.3 +14.1
09 10.09 Ю 3 35 км 3/0
[Ci fib]
+23.3 +10.4 44 +25 +30 комфорт 1020.0 998.8
12 10.09 Ю 3 35 км 6/3 600 м
[Sc Ci sp]
+23.8 +8.6 38 +24 +27 комфорт 1020.0 998.8
15 10.09 Ю 2 35 км 9/4 600 м
[Cb calv Ac trans Ci fib]
+21.9 +9.7 46 +23 +23 комфорт 1020.0 998.6
18 10.09 Ю 1 24 км {ливн. осадки} 9/9 600 м
[Sc]
+18.7 +11.5 63 +20 +20 1022.0 1000.4 +24.7 0.0
06 11.09 штиль 0 25 км 6/3 600 м
[Sc Ci fib]
+13.0 +11.9 93 +12 +14 1025.0 1002.9 +11.3
09 11.09 ЮЗ 1 35 км 6/0
[Ci fib]
+20.2 +11.4 57 +23 +27 комфорт 1026.0 1004.4
12 11.09 штиль 0 35 км 8/0
[Cs]
+21.3 +8.9 45 +23 +23 комфорт 1025.0 1003.5
15 11.09 штиль 0 30 км 6/0
[Ci fib]
+20.4 +8.1 45 +21 +22 комфорт 1025.0 1003.4
18 11.09 штиль 0 10 км ясно +15.0 +11.0 77 +15 +15 1026.0 1004.0 +22.3
06 12.09 штиль 0 25 км 4/0
[Ci fib]
+12.3 +11.5 95 +12 +14 1025.0 1002.8 +10.1
09 12.09 ЮЗ 1 30 км 4/0
[Ci fib]
+22.8 +11.8 50 +25 +32 комфорт 1024.0 1002.6
12 12.09 З 1 35 км 8/6 600 м
[Cb calv Ci fib]
+22.5 +10.6 47 +24 +24 комфорт 1024.0 1002.6
15 12.09 ЮЗ 1 35 км 6/4 600 м
[Cu hum Ci]
+22.1 +10.6 48 +24 +24 комфорт 1023.0 1001.6
18 12.09 штиль 0 23 км ясно +16.6 +10.4 67 +17 +17 1024.0 1002.2 +23.7
06 13.09 ЮЗ 1 19 км 9/9 600 м
[Sc]
+13.3 +11.5 89 +13 +13 1024.0 1001.9 +9.1
09 13.09 ЮЗ 1 35 км 8/8 600 м
[Cb calv]
+18.0 +11.1 64 +19 +19 1022.0 1000.3
12 13.09 ЮЗ 2 10 км 10 баллов +19.7 +11.5 59 +22 +22 комфорт 1020.0 998.5
15 13.09 ЮЗ 3
{11}
35 км 10/10 600 м
[Cb calv]
+18.9 +13.1 69 +20 +20 1017.0 995.5
18 13.09 З 1
{15}
9000 м слаб. ливневой дождь 10/10 600 м
[Cb cap]
+15.2 +14.9 98 +16 +16 1018.0 996.2 +20.0 0.9
06 14.09 СЗ 1
{11}
35 км ясно +9.1 +8.8 98 +8 +10 1024.0 1001.6 +7.0 0.1
09 14.09 СЗ 2 35 км 6/6 600 м
[Cb calv]
+14.6 +7.9 64 +14 +17 1024.0 1002.0
12 14.09 СЗ 3 35 км {ливн. осадки} 8/5 600 м
[Cb calv Ci sp]
+16.1 +5.4 49 +16 +18 1023.2 1003.5
15 14.09 С 3
{11}
35 км в посл. час ливневой дождь 6/4 600 м
[Sc Ac trans]
+14.4 +6.0 57 +14 +14 1024.0 1002.0
18 14.09 штиль 0 30 км {ливн. осадки} 5/3 600 м
[Cb calv Ac trans]
+9.1 +9.0 99 +8 +8 1024.0 1001.6 +17.3 0.8
06 15.09 ЮЗ 1 10 км 10 баллов +9.4 +8.5 94 +9 +9 1020.0 997.7 +6.3 0.3
09 15.09 З 3 35 км 10/8 600 м
[Cb calv Ci fib]
+14.0 +8.4 69 +13 +13 1018.0 996.1
12 15.09 ЮЗ 3 35 км {ливн. осадки} 9/9 600 м
[Sc]
+13.7 +7.0 64 +13 +13 1014.0 992.2
15 15.09 ЮЗ 2 35 км 9/9 600 м
[Cb calv]
+15.4 +6.4 55 +15 +15 1010.0 988.4
18 15.09 ЮЗ 2 30 км 10/10 600 м
[Cb calv]
+15.1 +6.1 55 +15 +15 1008.0 986.4 +15.6
06 16.09 З 2
{10}
10 км 10 баллов +11.7 +8.7 82 +11 +11 1005.0 983.2 +10.4 0.8
09 16.09 З 3 10 км 10 баллов +13.4 +8.2 71 +12 +12 1006.0 984.3
12 16.09 ЮЗ 4
{12}
10 км 6 баллов +15.6 +7.6 59 +15 +16 1005.0 983.5
15 16.09 СЗ 2
{13}
10 км 10 баллов +12.0 +9.0 82 +11 +11 1005.0 983.2
18 16.09 З 2
{12}
10 км ясно +11.9 +6.6 70 +11 +11 1005.0 983.2 +16.4 0.6

 

Местоположение метеостанции Вилейка (Минская область, Беларусь): широта 54.51 долгота 26.99 высота над уровнем моря 183 м.

В архиве по умолчанию представлена погода в Вилейке за последнюю неделю. Архивные данные за месяц целиком и за предыдущие месяцы, начиная с января 2011 года, Вы можете получить, выбрав интересующий диапазон дат из раскрывающегося списка и нажав кнопку "Ввод!".


*Определитесь, кто Вы:
робот инопланетянин человек

Внимание! Время в таблицах - всемирное. Для получения местного времени необходимо прибавить поправку, которая равна 3 ч.

Смотрите также архив погоды в соседних городах и на ближайших метеорологических станциях:

Погода в Нарочи (Минская область, Беларусь) (51 км)
Погода в Воложине (Минская область, Беларусь) (56 км)
Погода в Докшицах (Витебская область, Беларусь) (64 км)
Погода в Ошмянах (Гродненская область, Беларусь) (69 км)
Погода в Лынтупах (Витебская область, Беларусь) (74 км)
Погода в Минске (город Минск, Беларусь) (77 км)
Погода в Швенчёнисе (Литва) (88 км)
Погода в Березинском Заповеднике (Минская область, Беларусь) (91 км)
Погода в Шарковщине (Витебская область, Беларусь) (100 км)
Погода в Борисове (Минская область, Беларусь) (101 км)

Пояснения к столбцам:

Ветер - указаны скорость ветра в м/с - средняя за 10 мин, порывы в срок и между сроками (в фигурных скобках) и направление, откуда дует ветер: С - северный, СВ - северо-восточный, В - восточный, ЮВ - юго-восточный, Ю - южный, ЮЗ - юго-западный, З - западный, СЗ - северо-западный.
Видимость - горизонтальная дальность видимости в метрах или километрах. При видимости от 1 до 10 км при отсутствии осадков обычно наблюдается дымка, при ухудшении видимости до 1 км и менее - туман. В сухую погоду видимость может ухудшаться дымом, пылью или мглою.
Явления - указаны атмосферные явления, наблюдавшиеся в срок или в последний час перед сроком; фигурными скобками обозначены явления, наблюдавшиеся между сроками (за 1-3 часа до срока); квадратными скобками обозначены град или гололедные отложения с указанием их диаметра в мм.
Облачность - указаны через наклонную черту общая и нижняя облачность в баллах и высота нижней границы облаков в метрах; квадратными скобками обозначены формы облаков: Ci - перистые, Cs - перисто-слоистые, Cc - перисто-кучевые, Ac - высококучевые, As - высокослоистые, Sc - слоисто-кучевые, Ns - слоисто-дождевые, Cu - кучевые, Cb - кучево-дождевые. Подробнее классификацию облаков см. в Атласе облаков (PDF).
T - Температура воздуха - температура, измеренная на высоте 2 м над землей.
Td - Температура точки росы - температура, при понижении до которой содержащийся в воздухе водяной пар достигнет насыщения.
f - Относительная влажность воздуха - влажноcть воздуха, измеренная на высоте 2 м над землей.
Te - Эффективная температура - температура, которую ощущает одетый по сезону человек в тени. Характеристика душности погоды. При расчете учитывается влияние влажности воздуха и скорости ветра на теплоощущения человека.
Tes - Эффективная температура на солнце - температура, которую ощущает человек, с поправкой на солнечный нагрев. Характеристика знойности погоды. Зависит от высоты солнца над горизонтом, облачности и скорости ветра. Ночью, в пасмурную погоду, а также при ветре 12 м/с и более поправка равна нулю.
P - Атмосферное давление - приведенное к уровню моря атмосферное давление.
Po - Атмосферное давление - измеренное на уровне метеостанции атмосферное давление.
Tmin - Минимальная температура - минимум температуры воздуха на высоте 2 м над землей.
Tmax - Максимальная температура - максимум температуры воздуха на высоте 2 м над землей.
R - Количество осадков - Количество выпавших осадков за период времени, мм. При наведении курсора мыши на число - период времени, за который выпало указанное количество осадков.
R24 - Количество осадков - Количество выпавших осадков за 24 часа, мм.
S - Снежный покров - Высота снежного покрова, см. При наведении курсора мыши на число - состояние снежного покрова и степень покрытия местности в баллах.